| time (UTC) | temp F | wind direction | speed MPH | gust MPH | rain 1hr in | rain 24hr in | rain mn in | humidity % | barometer mb |
| 20260509064617 | 54 | 280 | 0.0 | 0.0 | 0.00 | 0.00 | 0.00 | 79 | 1024.3 |
| 20260509064058 | 54 | 280 | 0.0 | 0.0 | 0.00 | 0.00 | 0.00 | 80 | 1024.3 |
| 20260509063058 | 54 | 280 | 0.0 | 0.0 | 0.00 | 0.00 | 0.00 | 79 | 1024.3 |
| 20260509062557 | 54 | 280 | 0.0 | 0.0 | 0.00 | 0.00 | 0.00 | 80 | 1024.2 |
| 20260509062057 | 54 | 280 | 0.0 | 0.0 | 0.00 | 0.00 | 0.00 | 80 | 1024.2 |
| 20260509061557 | 54 | 280 | 0.0 | 0.0 | 0.00 | 0.00 | 0.00 | 79 | 1024.3 |
| 20260509061056 | 54 | 280 | 0.0 | 0.0 | 0.00 | 0.00 | 0.00 | 79 | 1024.1 |
| 20260509060556 | 54 | 280 | 0.0 | 0.0 | 0.00 | 0.00 | 0.00 | 79 | 1024.2 |
| 20260509060056 | 54 | 280 | 0.0 | 0.0 | 0.00 | 0.00 | 0.00 | 79 | 1024.2 |
| 20260509055556 | 54 | 280 | 0.0 | 2.0 | 0.00 | 0.00 | 0.00 | 79 | 1024.2 |
| 20260509055059 | 54 | 280 | 0.0 | 2.0 | 0.00 | 0.00 | 0.00 | 79 | 1024.2 |
| 20260509054602 | 54 | 280 | 0.0 | 2.0 | 0.00 | 0.00 | 0.00 | 79 | 1024.2 |
| 20260509054059 | 54 | 280 | 0.0 | 0.0 | 0.00 | 0.00 | 0.00 | 80 | 1024.2 |
| 20260509053101 | 53 | 280 | 0.0 | 0.0 | 0.00 | 0.00 | 0.00 | 80 | 1024.1 |
| 20260509052554 | 54 | 280 | 0.0 | 2.0 | 0.00 | 0.00 | 0.00 | 80 | 1024.1 |
| 20260509052054 | 54 | 280 | 0.0 | 2.0 | 0.00 | 0.00 | 0.00 | 80 | 1024.0 |
| 20260509051601 | 53 | 280 | 0.0 | 0.0 | 0.00 | 0.00 | 0.00 | 80 | 1024.1 |
| 20260509051054 | 53 | 280 | 0.0 | 0.0 | 0.00 | 0.00 | 0.00 | 80 | 1024.1 |
| 20260509050557 | 54 | 280 | 0.0 | 0.0 | 0.00 | 0.00 | 0.00 | 80 | 1024.1 |
| 20260509050101 | 54 | 280 | 0.0 | 0.0 | 0.00 | 0.00 | 0.00 | 79 | 1024.1 |
| 20260509045553 | 54 | 280 | 0.0 | 0.0 | 0.00 | 0.00 | 0.00 | 78 | 1024.1 |
| 20260509045053 | 54 | 280 | 0.0 | 0.0 | 0.00 | 0.00 | 0.00 | 78 | 1024.1 |
| 20260509044554 | 54 | 280 | 0.0 | 0.0 | 0.00 | 0.00 | 0.00 | 78 | 1024.1 |
| 20260509044053 | 54 | 280 | 0.0 | 0.0 | 0.00 | 0.00 | 0.00 | 78 | 1024.0 |
| 20260509043056 | 54 | 280 | 0.0 | 1.0 | 0.00 | 0.00 | 0.00 | 78 | 1023.9 |
| 20260509042556 | 54 | 280 | 0.0 | 4.0 | 0.00 | 0.00 | 0.00 | 77 | 1023.8 |
| 20260509042056 | 54 | 280 | 0.0 | 4.0 | 0.00 | 0.00 | 0.00 | 77 | 1023.8 |
| 20260509041556 | 54 | 281 | 0.0 | 3.0 | 0.00 | 0.00 | 0.00 | 75 | 1023.8 |
| 20260509041054 | 55 | 282 | 0.0 | 4.0 | 0.00 | 0.00 | 0.00 | 75 | 1023.7 |
| 20260509040555 | 55 | 283 | 2.0 | 4.0 | 0.00 | 0.00 | 0.00 | 74 | 1023.7 |
| 20260509040054 | 55 | 277 | 1.0 | 4.0 | 0.00 | 0.00 | 0.00 | 74 | 1023.5 |
| 20260509035552 | 55 | 277 | 2.0 | 4.0 | 0.00 | 0.00 | 0.00 | 74 | 1023.4 |
| 20260509035055 | 55 | 277 | 0.0 | 3.0 | 0.00 | 0.00 | 0.00 | 74 | 1023.3 |
| 20260509034551 | 55 | 278 | 1.0 | 3.0 | 0.00 | 0.00 | 0.00 | 73 | 1023.3 |
| 20260509034049 | 55 | 278 | 0.0 | 2.0 | 0.00 | 0.00 | 0.00 | 72 | 1023.1 |
| 20260509033045 | 56 | 278 | 0.0 | 3.0 | 0.00 | 0.00 | 0.00 | 71 | 1023.0 |
| 20260509032545 | 56 | 278 | 0.0 | 3.0 | 0.00 | 0.00 | 0.00 | 70 | 1023.0 |
| 20260509032046 | 57 | 279 | 1.0 | 4.0 | 0.00 | 0.00 | 0.00 | 70 | 1023.0 |
| 20260509031544 | 57 | 279 | 1.0 | 4.0 | 0.00 | 0.00 | 0.00 | 69 | 1023.0 |
| 20260509031043 | 57 | 279 | 1.0 | 4.0 | 0.00 | 0.00 | 0.00 | 68 | 1022.9 |
| 20260509030543 | 57 | 281 | 2.0 | 5.0 | 0.00 | 0.00 | 0.00 | 68 | 1022.8 |
| 20260509030042 | 58 | 280 | 2.0 | 8.0 | 0.00 | 0.00 | 0.00 | 67 | 1022.8 |
| 20260509025542 | 58 | 267 | 3.0 | 8.0 | 0.00 | 0.00 | 0.00 | 67 | 1022.8 |
| 20260509025045 | 58 | 268 | 2.0 | 8.0 | 0.00 | 0.00 | 0.00 | 67 | 1022.7 |
| 20260509024642 | 58 | 248 | 3.0 | 8.0 | 0.00 | 0.00 | 0.00 | 67 | 1022.7 |
| 20260509024042 | 59 | 255 | 4.0 | 9.0 | 0.00 | 0.00 | 0.00 | 65 | 1022.8 |
| 20260509023042 | 59 | 234 | 3.0 | 9.0 | 0.00 | 0.00 | 0.00 | 64 | 1022.6 |
| 20260509022544 | 60 | 277 | 5.0 | 9.0 | 0.00 | 0.00 | 0.00 | 63 | 1022.7 |
| 20260509022042 | 60 | 296 | 5.0 | 8.0 | 0.00 | 0.00 | 0.00 | 63 | 1022.7 |
| 20260509021542 | 60 | 300 | 3.0 | 8.0 | 0.00 | 0.00 | 0.00 | 63 | 1022.5 |
| 20260509021045 | 60 | 280 | 3.0 | 8.0 | 0.00 | 0.00 | 0.00 | 62 | 1022.5 |
| 20260509020541 | 60 | 256 | 2.0 | 7.0 | 0.00 | 0.00 | 0.00 | 64 | 1022.5 |
| 20260509020041 | 59 | 216 | 1.0 | 7.0 | 0.00 | 0.00 | 0.00 | 64 | 1022.7 |
| 20260509015542 | 60 | 236 | 1.0 | 10.0 | 0.00 | 0.00 | 0.00 | 64 | 1022.7 |
| 20260509015042 | 60 | 225 | 5.0 | 11.0 | 0.00 | 0.00 | 0.00 | 62 | 1022.6 |
| 20260509014545 | 61 | 242 | 7.0 | 11.0 | 0.00 | 0.00 | 0.00 | 61 | 1022.6 |
| 20260509014041 | 61 | 288 | 3.0 | 11.0 | 0.00 | 0.00 | 0.00 | 60 | 1022.6 |
| 20260509013050 | 60 | 246 | 2.0 | 8.0 | 0.00 | 0.00 | 0.00 | 62 | 1022.7 |
| 20260509012542 | 60 | 248 | 3.0 | 8.0 | 0.00 | 0.00 | 0.00 | 60 | 1022.6 |
| 20260509012040 | 61 | 269 | 3.0 | 8.0 | 0.00 | 0.00 | 0.00 | 60 | 1022.6 |
| 20260509011543 | 61 | 245 | 4.0 | 8.0 | 0.00 | 0.00 | 0.00 | 60 | 1022.7 |
| 20260509011040 | 60 | 277 | 3.0 | 9.0 | 0.00 | 0.00 | 0.00 | 60 | 1022.8 |
| 20260509010543 | 61 | 238 | 5.0 | 9.0 | 0.00 | 0.00 | 0.00 | 61 | 1022.8 |
| 20260509010039 | 61 | 241 | 6.0 | 11.0 | 0.00 | 0.00 | 0.00 | 60 | 1022.8 |
| 20260509005540 | 63 | 267 | 5.0 | 10.0 | 0.00 | 0.00 | 0.00 | 57 | 1022.7 |
| 20260509005040 | 63 | 282 | 5.0 | 10.0 | 0.00 | 0.00 | 0.00 | 57 | 1022.7 |
| 20260509004539 | 63 | 250 | 4.0 | 10.0 | 0.00 | 0.00 | 0.00 | 57 | 1022.7 |
| 20260509004038 | 62 | 280 | 4.0 | 12.0 | 0.00 | 0.00 | 0.00 | 57 | 1022.7 |
| 20260509003037 | 62 | 227 | 4.0 | 10.0 | 0.00 | 0.00 | 0.00 | 58 | 1022.7 |
| 20260509002538 | 62 | 231 | 3.0 | 9.0 | 0.00 | 0.00 | 0.00 | 59 | 1022.7 |
| 20260509002036 | 62 | 221 | 5.0 | 11.0 | 0.00 | 0.00 | 0.00 | 58 | 1022.6 |
| 20260509001537 | 62 | 259 | 5.0 | 11.0 | 0.00 | 0.00 | 0.00 | 59 | 1022.6 |
| 20260509001037 | 63 | 280 | 5.0 | 9.0 | 0.00 | 0.00 | 0.00 | 59 | 1022.6 |
| 20260509000539 | 62 | 211 | 4.0 | 14.0 | 0.00 | 0.00 | 0.00 | 59 | 1022.4 |
| 20260509000035 | 62 | 257 | 7.0 | 14.0 | 0.00 | 0.00 | 0.00 | 56 | 1022.4 |
| 20260508235535 | 62 | 250 | 3.0 | 13.0 | 0.00 | 0.00 | 0.00 | 56 | 1022.4 |
| 20260508235036 | 62 | 295 | 4.0 | 14.0 | 0.00 | 0.00 | 0.00 | 56 | 1022.4 |
| 20260508234535 | 63 | 236 | 9.0 | 14.0 | 0.00 | 0.00 | 0.00 | 55 | 1022.4 |
| 20260508234039 | 63 | 301 | 5.0 | 9.0 | 0.00 | 0.00 | 0.00 | 56 | 1022.4 |
| 20260508233047 | 61 | 243 | 3.0 | 7.0 | 0.00 | 0.00 | 0.00 | 59 | 1022.5 |
| 20260508232533 | 61 | 181 | 4.0 | 7.0 | 0.00 | 0.00 | 0.00 | 59 | 1022.6 |
| 20260508232033 | 62 | 227 | 2.0 | 9.0 | 0.00 | 0.00 | 0.00 | 58 | 1022.7 |
| 20260508231537 | 63 | 229 | 4.0 | 11.0 | 0.00 | 0.00 | 0.00 | 56 | 1022.7 |
| 20260508231036 | 62 | 298 | 5.0 | 11.0 | 0.00 | 0.00 | 0.00 | 57 | 1022.7 |
| 20260508230535 | 62 | 257 | 4.0 | 11.0 | 0.00 | 0.00 | 0.00 | 57 | 1022.7 |
| 20260508230035 | 62 | 290 | 5.0 | 11.0 | 0.00 | 0.00 | 0.00 | 57 | 1022.7 |
| 20260508225533 | 61 | 254 | 3.0 | 10.0 | 0.00 | 0.00 | 0.00 | 57 | 1022.8 |
| 20260508225032 | 60 | 270 | 4.0 | 9.0 | 0.00 | 0.00 | 0.00 | 60 | 1022.7 |
| 20260508224533 | 61 | 175 | 3.0 | 11.0 | 0.00 | 0.00 | 0.00 | 58 | 1022.9 |
| 20260508224031 | 60 | 283 | 6.0 | 11.0 | 0.00 | 0.00 | 0.00 | 58 | 1022.9 |
| 20260508223033 | 60 | 264 | 5.0 | 11.0 | 0.00 | 0.00 | 0.00 | 58 | 1022.8 |
| 20260508222532 | 61 | 198 | 4.0 | 11.0 | 0.00 | 0.00 | 0.00 | 59 | 1022.7 |
| 20260508222030 | 62 | 242 | 6.0 | 11.0 | 0.00 | 0.00 | 0.00 | 60 | 1022.7 |
| 20260508221531 | 61 | 216 | 6.0 | 11.0 | 0.00 | 0.00 | 0.00 | 59 | 1022.7 |
| 20260508221032 | 61 | 244 | 6.0 | 11.0 | 0.00 | 0.00 | 0.00 | 58 | 1022.8 |
| 20260508220529 | 61 | 257 | 6.0 | 12.0 | 0.00 | 0.00 | 0.00 | 58 | 1022.8 |
| 20260508220029 | 60 | 249 | 4.0 | 12.0 | 0.00 | 0.00 | 0.00 | 59 | 1022.8 |
| 20260508215528 | 62 | 220 | 8.0 | 14.0 | 0.00 | 0.00 | 0.00 | 59 | 1022.7 |
| 20260508215028 | 61 | 181 | 4.0 | 11.0 | 0.00 | 0.00 | 0.00 | 58 | 1022.6 |
| 20260508214529 | 61 | 257 | 6.0 | 11.0 | 0.00 | 0.00 | 0.00 | 57 | 1022.8 |
| 20260508214030 | 60 | 209 | 7.0 | 14.0 | 0.00 | 0.00 | 0.00 | 59 | 1022.8 |
| 20260508213033 | 61 | 210 | 6.0 | 10.0 | 0.00 | 0.00 | 0.00 | 58 | 1022.7 |
| 20260508212528 | 61 | 253 | 3.0 | 13.0 | 0.00 | 0.00 | 0.00 | 58 | 1022.7 |
| 20260508212028 | 61 | 261 | 7.0 | 13.0 | 0.00 | 0.00 | 0.00 | 60 | 1022.7 |
| 20260508211534 | 61 | 222 | 6.0 | 12.0 | 0.00 | 0.00 | 0.00 | 60 | 1022.7 |
| 20260508211028 | 61 | 264 | 6.0 | 10.0 | 0.00 | 0.00 | 0.00 | 60 | 1022.7 |
| 20260508210525 | 60 | 206 | 4.0 | 11.0 | 0.00 | 0.00 | 0.00 | 62 | 1022.6 |
| 20260508210024 | 60 | 220 | 5.0 | 11.0 | 0.00 | 0.00 | 0.00 | 65 | 1022.5 |
| 20260508205523 | 59 | 215 | 6.0 | 14.0 | 0.00 | 0.00 | 0.00 | 62 | 1022.5 |
| 20260508205022 | 58 | 211 | 5.0 | 16.0 | 0.00 | 0.00 | 0.00 | 65 | 1022.4 |
| 20260508204522 | 59 | 181 | 7.0 | 16.0 | 0.00 | 0.00 | 0.00 | 64 | 1022.3 |
| 20260508204022 | 58 | 266 | 3.0 | 10.0 | 0.00 | 0.00 | 0.00 | 68 | 1022.3 |
| 20260508203019 | 57 | 189 | 2.0 | 8.0 | 0.00 | 0.00 | 0.00 | 67 | 1022.5 |
| 20260508202518 | 57 | 167 | 3.0 | 6.0 | 0.00 | 0.00 | 0.00 | 69 | 1022.5 |
| 20260508202016 | 56 | 187 | 1.0 | 3.0 | 0.00 | 0.00 | 0.00 | 69 | 1022.4 |
| 20260508201517 | 55 | 248 | 0.0 | 6.0 | 0.00 | 0.00 | 0.00 | 69 | 1022.4 |
| 20260508201016 | 56 | 248 | 3.0 | 7.0 | 0.00 | 0.00 | 0.00 | 69 | 1022.5 |
| 20260508200515 | 56 | 276 | 3.0 | 7.0 | 0.00 | 0.00 | 0.00 | 69 | 1022.5 |
| 20260508200014 | 55 | 252 | 4.0 | 7.0 | 0.00 | 0.00 | 0.00 | 70 | 1022.5 |
| 20260508195513 | 55 | 245 | 3.0 | 7.0 | 0.00 | 0.00 | 0.00 | 70 | 1022.4 |
| 20260508195016 | 55 | 205 | 0.0 | 5.0 | 0.00 | 0.00 | 0.00 | 74 | 1022.5 |
| 20260508194515 | 54 | 211 | 3.0 | 8.0 | 0.00 | 0.00 | 0.00 | 72 | 1022.4 |
| 20260508194010 | 54 | 185 | 6.0 | 11.0 | 0.00 | 0.00 | 0.00 | 73 | 1022.6 |
| 20260508193009 | 53 | 223 | 3.0 | 10.0 | 0.00 | 0.00 | 0.00 | 74 | 1022.6 |
| 20260508192508 | 54 | 235 | 4.0 | 7.0 | 0.00 | 0.00 | 0.00 | 74 | 1022.6 |
| 20260508192007 | 53 | 188 | 3.0 | 8.0 | 0.00 | 0.00 | 0.00 | 77 | 1022.6 |
| 20260508191509 | 52 | 169 | 3.0 | 10.0 | 0.00 | 0.00 | 0.00 | 77 | 1022.7 |
| 20260508191004 | 52 | 240 | 6.0 | 15.0 | 0.00 | 0.00 | 0.00 | 77 | 1022.8 |
| 20260508190503 | 52 | 203 | 5.0 | 15.0 | 0.00 | 0.00 | 0.00 | 78 | 1022.9 |
| 20260508190003 | 52 | 219 | 6.0 | 11.0 | 0.00 | 0.00 | 0.00 | 78 | 1022.8 |
| 20260508185501 | 52 | 195 | 3.0 | 7.0 | 0.00 | 0.00 | 0.00 | 79 | 1022.7 |
| 20260508185002 | 52 | 194 | 3.0 | 11.0 | 0.00 | 0.00 | 0.00 | 79 | 1022.7 |
| 20260508184505 | 52 | 209 | 5.0 | 11.0 | 0.00 | 0.00 | 0.00 | 79 | 1022.7 |
| 20260508184001 | 52 | 193 | 5.0 | 9.0 | 0.00 | 0.00 | 0.00 | 79 | 1022.8 |
| 20260508183700 | 52 | 214 | 2.0 | 9.0 | 0.00 | 0.00 | 0.00 | 79 | 1022.7 |
| 20260508183112 | 52 | 210 | 3.0 | 9.0 | 0.00 | 0.00 | 0.00 | 79 | 1022.6 |
| 20260508182600 | 51 | 240 | 3.0 | 8.0 | 0.00 | 0.00 | 0.00 | 79 | 1022.4 |
| 20260508182059 | 52 | 209 | 3.0 | 7.0 | 0.00 | 0.00 | 0.00 | 80 | 1022.3 |
| 20260508181558 | 51 | 256 | 3.0 | 8.0 | 0.00 | 0.00 | 0.00 | 80 | 1022.2 |
| 20260508181058 | 51 | 210 | 3.0 | 7.0 | 0.00 | 0.00 | 0.00 | 81 | 1022.4 |
| 20260508180556 | 51 | 217 | 1.0 | 6.0 | 0.00 | 0.00 | 0.00 | 82 | 1022.3 |
| 20260508180057 | 51 | 217 | 3.0 | 6.0 | 0.00 | 0.00 | 0.00 | 82 | 1022.4 |
| 20260508175556 | 50 | 221 | 2.0 | 4.0 | 0.00 | 0.00 | 0.00 | 82 | 1022.4 |
| 20260508175059 | 50 | 221 | 2.0 | 6.0 | 0.00 | 0.00 | 0.00 | 82 | 1022.4 |
| 20260508174610 | 50 | 223 | 2.0 | 8.0 | 0.00 | 0.00 | 0.00 | 82 | 1022.4 |
| 20260508174054 | 50 | 169 | 3.0 | 9.0 | 0.00 | 0.00 | 0.00 | 82 | 1022.2 |
| 20260508173056 | 50 | 221 | 4.0 | 8.0 | 0.00 | 0.00 | 0.00 | 82 | 1021.9 |
| 20260508172558 | 50 | 242 | 2.0 | 7.0 | 0.00 | 0.00 | 0.00 | 82 | 1021.9 |
| 20260508172053 | 50 | 236 | 1.0 | 7.0 | 0.00 | 0.00 | 0.00 | 82 | 1021.6 |
| 20260508171553 | 50 | 240 | 3.0 | 7.0 | 0.00 | 0.00 | 0.00 | 82 | 1021.6 |
| 20260508171051 | 50 | 186 | 2.0 | 7.0 | 0.00 | 0.00 | 0.00 | 83 | 1021.6 |
| 20260508170552 | 50 | 192 | 2.0 | 9.0 | 0.00 | 0.00 | 0.00 | 83 | 1021.6 |
| 20260508170054 | 50 | 254 | 3.0 | 7.0 | 0.00 | 0.00 | 0.00 | 83 | 1021.5 |
| 20260508165550 | 50 | 202 | 3.0 | 5.0 | 0.00 | 0.00 | 0.00 | 82 | 1021.3 |
| 20260508165050 | 49 | 204 | 0.0 | 6.0 | 0.00 | 0.00 | 0.00 | 83 | 1021.2 |
| 20260508164550 | 49 | 197 | 2.0 | 6.0 | 0.00 | 0.00 | 0.00 | 83 | 1021.2 |
| 20260508164049 | 49 | 232 | 2.0 | 7.0 | 0.00 | 0.00 | 0.00 | 82 | 1021.1 |
| 20260508163048 | 49 | 211 | 2.0 | 9.0 | 0.00 | 0.00 | 0.00 | 83 | 1021.0 |
| 20260508162547 | 49 | 208 | 4.0 | 6.0 | 0.00 | 0.00 | 0.00 | 82 | 1021.1 |
| 20260508162048 | 49 | 190 | 0.0 | 6.0 | 0.00 | 0.00 | 0.00 | 83 | 1020.9 |
| 20260508161548 | 49 | 145 | 1.0 | 7.0 | 0.00 | 0.00 | 0.00 | 82 | 1020.8 |
| 20260508161049 | 49 | 223 | 3.0 | 7.0 | 0.00 | 0.00 | 0.00 | 83 | 1021.0 |
| 20260508160546 | 49 | 163 | 1.0 | 8.0 | 0.00 | 0.00 | 0.00 | 83 | 1021.1 |
| 20260508160051 | 49 | 159 | 4.0 | 8.0 | 0.00 | 0.00 | 0.00 | 83 | 1021.0 |
| 20260508155545 | 49 | 165 | 3.0 | 8.0 | 0.00 | 0.00 | 0.00 | 84 | 1021.1 |
| 20260508155044 | 49 | 228 | 3.0 | 8.0 | 0.00 | 0.00 | 0.00 | 84 | 1021.2 |
| 20260508154549 | 48 | 195 | 3.0 | 7.0 | 0.00 | 0.00 | 0.00 | 85 | 1021.2 |
| 20260508154042 | 48 | 198 | 4.0 | 8.0 | 0.00 | 0.00 | 0.00 | 85 | 1021.3 |
| 20260508153042 | 48 | 175 | 3.0 | 10.0 | 0.00 | 0.00 | 0.00 | 86 | 1021.5 |
| 20260508152540 | 48 | 169 | 6.0 | 10.0 | 0.00 | 0.00 | 0.00 | 86 | 1021.4 |
| 20260508152040 | 48 | 182 | 2.0 | 9.0 | 0.00 | 0.00 | 0.00 | 87 | 1021.4 |
| 20260508151539 | 48 | 194 | 6.0 | 9.0 | 0.00 | 0.00 | 0.00 | 87 | 1021.4 |
| 20260508151040 | 48 | 198 | 4.0 | 9.0 | 0.00 | 0.00 | 0.00 | 87 | 1021.5 |
| 20260508150537 | 48 | 222 | 3.0 | 10.0 | 0.00 | 0.00 | 0.00 | 87 | 1021.5 |
| 20260508150037 | 48 | 220 | 4.0 | 11.0 | 0.00 | 0.00 | 0.00 | 87 | 1021.4 |
| 20260508145536 | 48 | 211 | 6.0 | 11.0 | 0.00 | 0.00 | 0.00 | 87 | 1021.3 |
| 20260508145037 | 48 | 194 | 4.0 | 8.0 | 0.00 | 0.00 | 0.00 | 88 | 1021.3 |
| 20260508144535 | 48 | 188 | 1.0 | 10.0 | 0.00 | 0.00 | 0.00 | 88 | 1021.3 |
| 20260508144036 | 48 | 189 | 4.0 | 10.0 | 0.00 | 0.00 | 0.00 | 89 | 1021.1 |
| 20260508143047 | 48 | 229 | 3.0 | 8.0 | 0.00 | 0.00 | 0.00 | 89 | 1021.0 |
| 20260508142531 | 48 | 222 | 4.0 | 8.0 | 0.00 | 0.00 | 0.00 | 89 | 1020.9 |
| 20260508142032 | 48 | 198 | 2.0 | 8.0 | 0.00 | 0.00 | 0.00 | 90 | 1020.8 |
| 20260508141529 | 48 | 198 | 2.0 | 8.0 | 0.00 | 0.00 | 0.00 | 90 | 1020.5 |
| 20260508141029 | 48 | 184 | 2.0 | 5.0 | 0.00 | 0.00 | 0.00 | 90 | 1020.5 |
| 20260508140527 | 48 | 184 | 1.0 | 4.0 | 0.00 | 0.00 | 0.00 | 90 | 1020.3 |
| 20260508140035 | 48 | 184 | 0.0 | 4.0 | 0.00 | 0.00 | 0.00 | 90 | 1020.2 |
| 20260508135525 | 48 | 183 | 0.0 | 8.0 | 0.00 | 0.00 | 0.00 | 90 | 1020.1 |
| 20260508135025 | 48 | 183 | 2.0 | 8.0 | 0.00 | 0.00 | 0.00 | 90 | 1020.1 |
| 20260508134524 | 48 | 165 | 2.0 | 7.0 | 0.00 | 0.00 | 0.00 | 90 | 1019.9 |
| 20260508134024 | 48 | 161 | 2.0 | 7.0 | 0.00 | 0.00 | 0.00 | 91 | 1019.9 |
| 20260508133624 | 48 | 152 | 3.0 | 6.0 | 0.00 | 0.00 | 0.00 | 91 | 1019.8 |
| 20260508133023 | 48 | 146 | 1.0 | 4.0 | 0.00 | 0.00 | 0.00 | 91 | 1019.8 |
| 20260508132525 | 47 | 145 | 1.0 | 3.0 | 0.00 | 0.00 | 0.00 | 92 | 1019.7 |
| 20260508132021 | 47 | 145 | 0.0 | 2.0 | 0.00 | 0.00 | 0.00 | 92 | 1019.5 |
| 20260508131521 | 47 | 145 | 0.0 | 2.0 | 0.00 | 0.00 | 0.00 | 92 | 1019.5 |
| 20260508131020 | 47 | 145 | 0.0 | 0.0 | 0.00 | 0.00 | 0.00 | 92 | 1019.4 |
| 20260508130519 | 47 | 145 | 0.0 | 0.0 | 0.00 | 0.00 | 0.00 | 91 | 1019.3 |
| 20260508130020 | 47 | 145 | 0.0 | 0.0 | 0.00 | 0.00 | 0.00 | 91 | 1019.3 |
| 20260508125517 | 47 | 145 | 0.0 | 0.0 | 0.00 | 0.00 | 0.00 | 91 | 1019.3 |
| 20260508125018 | 47 | 145 | 0.0 | 0.0 | 0.00 | 0.00 | 0.00 | 91 | 1019.3 |
| 20260508124530 | 47 | 145 | 0.0 | 0.0 | 0.00 | 0.00 | 0.00 | 91 | 1019.4 |
| 20260508124016 | 47 | 145 | 0.0 | 0.0 | 0.00 | 0.00 | 0.00 | 91 | 1019.4 |
| 20260508123026 | 47 | 145 | 0.0 | 0.0 | 0.00 | 0.00 | 0.00 | 90 | 1019.0 |
| 20260508122515 | 47 | 145 | 0.0 | 0.0 | 0.00 | 0.00 | 0.00 | 90 | 1019.0 |
| 20260508122013 | 48 | 145 | 0.0 | 0.0 | 0.00 | 0.00 | 0.00 | 90 | 1018.9 |
| 20260508121515 | 48 | 145 | 0.0 | 0.0 | 0.00 | 0.00 | 0.00 | 90 | 1018.9 |
| 20260508121012 | 48 | 145 | 0.0 | 0.0 | 0.00 | 0.00 | 0.00 | 90 | 1018.8 |
| 20260508120513 | 48 | 145 | 0.0 | 0.0 | 0.00 | 0.00 | 0.00 | 90 | 1018.8 |
| 20260508120012 | 48 | 145 | 0.0 | 0.0 | 0.00 | 0.00 | 0.00 | 90 | 1018.7 |
| 20260508115511 | 48 | 145 | 0.0 | 0.0 | 0.00 | 0.00 | 0.00 | 90 | 1018.7 |
| 20260508115011 | 48 | 145 | 0.0 | 0.0 | 0.00 | 0.00 | 0.00 | 90 | 1018.6 |
| 20260508114510 | 48 | 145 | 0.0 | 0.0 | 0.00 | 0.00 | 0.00 | 90 | 1018.6 |
| 20260508114010 | 48 | 145 | 0.0 | 0.0 | 0.00 | 0.00 | 0.00 | 90 | 1018.6 |
| 20260508113610 | 48 | 145 | 0.0 | 0.0 | 0.00 | 0.00 | 0.00 | 89 | 1018.5 |
| 20260508113012 | 48 | 145 | 0.0 | 0.0 | 0.00 | 0.00 | 0.00 | 89 | 1018.4 |
| 20260508112508 | 48 | 145 | 0.0 | 0.0 | 0.00 | 0.00 | 0.00 | 89 | 1018.4 |
| 20260508112008 | 48 | 145 | 0.0 | 0.0 | 0.00 | 0.00 | 0.00 | 89 | 1018.4 |
| 20260508111507 | 48 | 145 | 0.0 | 0.0 | 0.00 | 0.00 | 0.00 | 88 | 1018.3 |
| 20260508111008 | 49 | 145 | 0.0 | 0.0 | 0.00 | 0.00 | 0.00 | 88 | 1018.2 |
| 20260508110506 | 49 | 145 | 0.0 | 0.0 | 0.00 | 0.00 | 0.00 | 88 | 1018.2 |
| 20260508110005 | 49 | 145 | 0.0 | 0.0 | 0.00 | 0.00 | 0.00 | 88 | 1018.1 |
| 20260508105504 | 49 | 145 | 0.0 | 0.0 | 0.00 | 0.00 | 0.00 | 88 | 1018.1 |
| 20260508105003 | 49 | 145 | 0.0 | 0.0 | 0.00 | 0.00 | 0.00 | 88 | 1018.0 |
| 20260508104504 | 49 | 145 | 0.0 | 0.0 | 0.00 | 0.00 | 0.00 | 87 | 1018.0 |
| 20260508104005 | 49 | 145 | 0.0 | 0.0 | 0.00 | 0.00 | 0.00 | 88 | 1017.9 |
| 20260508103604 | 49 | 145 | 0.0 | 0.0 | 0.00 | 0.00 | 0.00 | 88 | 1017.9 |
| 20260508103007 | 49 | 145 | 0.0 | 3.0 | 0.00 | 0.00 | 0.00 | 88 | 1017.9 |
| 20260508102503 | 49 | 145 | 0.0 | 3.0 | 0.00 | 0.00 | 0.00 | 88 | 1017.9 |
| 20260508102002 | 49 | 145 | 0.0 | 3.0 | 0.00 | 0.00 | 0.00 | 88 | 1017.9 |
| 20260508101502 | 49 | 145 | 1.0 | 3.0 | 0.00 | 0.00 | 0.00 | 88 | 1017.9 |
| 20260508101100 | 49 | 145 | 0.0 | 2.0 | 0.00 | 0.00 | 0.00 | 87 | 1017.9 |
| 20260508100601 | 49 | 145 | 0.0 | 4.0 | 0.00 | 0.00 | 0.00 | 87 | 1017.9 |
| 20260508095557 | 50 | 144 | 0.0 | 4.0 | 0.00 | 0.00 | 0.00 | 86 | 1017.8 |
| 20260508095057 | 50 | 144 | 1.0 | 4.0 | 0.00 | 0.00 | 0.00 | 85 | 1017.8 |
| 20260508094603 | 51 | 144 | 1.0 | 4.0 | 0.00 | 0.00 | 0.00 | 85 | 1017.8 |
| 20260508094055 | 51 | 144 | 1.0 | 9.0 | 0.00 | 0.00 | 0.00 | 85 | 1017.9 |
| 20260508093656 | 51 | 144 | 3.0 | 9.0 | 0.00 | 0.00 | 0.00 | 84 | 1017.8 |
| 20260508093058 | 51 | 164 | 3.0 | 8.0 | 0.00 | 0.00 | 0.00 | 85 | 1017.9 |
| 20260508092555 | 51 | 166 | 2.0 | 8.0 | 0.00 | 0.00 | 0.00 | 85 | 1017.9 |
| 20260508092054 | 51 | 171 | 3.0 | 6.0 | 0.00 | 0.00 | 0.00 | 85 | 1017.9 |
| 20260508091604 | 51 | 173 | 2.0 | 7.0 | 0.00 | 0.00 | 0.00 | 86 | 1017.8 |
| 20260508091054 | 50 | 175 | 4.0 | 7.0 | 0.00 | 0.00 | 0.00 | 86 | 1017.8 |
| 20260508090554 | 50 | 172 | 3.0 | 7.0 | 0.00 | 0.00 | 0.00 | 86 | 1017.8 |
| 20260508090107 | 50 | 168 | 5.0 | 7.0 | 0.00 | 0.00 | 0.00 | 85 | 1017.8 |
| 20260508085553 | 51 | 163 | 3.0 | 8.0 | 0.00 | 0.00 | 0.00 | 84 | 1017.7 |
| 20260508085053 | 51 | 157 | 3.0 | 8.0 | 0.00 | 0.00 | 0.00 | 84 | 1017.7 |
| 20260508084553 | 51 | 136 | 0.0 | 5.0 | 0.00 | 0.00 | 0.00 | 84 | 1017.6 |
| 20260508084053 | 51 | 122 | 1.0 | 7.0 | 0.00 | 0.00 | 0.00 | 84 | 1017.6 |
| 20260508083653 | 51 | 120 | 2.0 | 7.0 | 0.00 | 0.00 | 0.00 | 84 | 1017.6 |
| 20260508083052 | 52 | 92 | 0.0 | 4.0 | 0.00 | 0.00 | 0.00 | 83 | 1017.5 |
| 20260508082552 | 52 | 90 | 0.0 | 4.0 | 0.00 | 0.00 | 0.00 | 83 | 1017.5 |
| 20260508082053 | 52 | 87 | 0.0 | 3.0 | 0.00 | 0.00 | 0.00 | 83 | 1017.4 |
| 20260508081606 | 52 | 85 | 0.0 | 3.0 | 0.00 | 0.00 | 0.00 | 83 | 1017.5 |
| 20260508081052 | 52 | 85 | 0.0 | 4.0 | 0.00 | 0.00 | 0.00 | 83 | 1017.5 |
| 20260508080551 | 52 | 85 | 1.0 | 4.0 | 0.00 | 0.00 | 0.00 | 83 | 1017.5 |
| 20260508080053 | 52 | 82 | 1.0 | 4.0 | 0.00 | 0.00 | 0.00 | 83 | 1017.6 |
| 20260508075552 | 52 | 81 | 1.0 | 6.0 | 0.00 | 0.00 | 0.00 | 83 | 1017.4 |
| 20260508075050 | 52 | 80 | 1.0 | 4.0 | 0.00 | 0.00 | 0.00 | 83 | 1017.5 |
| 20260508074550 | 52 | 80 | 1.0 | 4.0 | 0.00 | 0.00 | 0.00 | 83 | 1017.6 |
| 20260508074051 | 52 | 75 | 1.0 | 5.0 | 0.00 | 0.00 | 0.00 | 83 | 1017.6 |
| 20260508073650 | 52 | 75 | 0.0 | 5.0 | 0.00 | 0.00 | 0.00 | 83 | 1017.7 |
| 20260508073054 | 52 | 73 | 0.0 | 3.0 | 0.00 | 0.00 | 0.00 | 83 | 1017.7 |
| 20260508072546 | 52 | 71 | 0.0 | 5.0 | 0.00 | 0.00 | 0.00 | 83 | 1017.8 |
| 20260508072046 | 52 | 67 | 0.0 | 5.0 | 0.00 | 0.00 | 0.00 | 83 | 1017.7 |
| 20260508071559 | 52 | 50 | 0.0 | 4.0 | 0.00 | 0.00 | 0.00 | 83 | 1017.6 |
| 20260508071046 | 52 | 40 | 0.0 | 3.0 | 0.00 | 0.00 | 0.00 | 83 | 1017.7 |
| 20260508070546 | 52 | 40 | 0.0 | 3.0 | 0.00 | 0.00 | 0.00 | 83 | 1017.7 |
| 20260508070057 | 52 | 39 | 1.0 | 3.0 | 0.00 | 0.00 | 0.00 | 83 | 1017.8 |
| 20260508065548 | 52 | 38 | 1.0 | 3.0 | 0.00 | 0.00 | 0.00 | 83 | 1017.8 |
| 20260508065044 | 52 | 35 | 0.0 | 2.0 | 0.00 | 0.00 | 0.00 | 83 | 1017.8 |